| time (UTC) | temp F | wind direction | speed MPH | gust MPH | rain 1hr in | rain 24hr in | rain mn in | humidity % | barometer mb |
| 20260901081039 | 71 | 333 | 0.0 | 0.0 | 0.00 | 0.00 | 0.00 | 93 | 1017.7 |
| 20260901080539 | 71 | 333 | 0.0 | 0.0 | 0.00 | 0.00 | 0.00 | 92 | 1017.7 |
| 20260901080048 | 71 | 333 | 0.0 | 0.0 | 0.00 | 0.00 | 0.00 | 92 | 1017.7 |
| 20260901075538 | 71 | 333 | 0.0 | 0.0 | 0.00 | 0.00 | 0.00 | 92 | 1017.7 |
| 20260901075039 | 71 | 333 | 0.0 | 0.0 | 0.00 | 0.00 | 0.00 | 92 | 1017.7 |
| 20260901074544 | 71 | 333 | 0.0 | 0.0 | 0.00 | 0.00 | 0.00 | 92 | 1017.7 |
| 20260901074036 | 71 | 333 | 0.0 | 0.0 | 0.00 | 0.00 | 0.00 | 92 | 1017.7 |
| 20260901073539 | 71 | 333 | 0.0 | 0.0 | 0.00 | 0.00 | 0.00 | 92 | 1017.7 |
| 20260901073039 | 71 | 333 | 0.0 | 0.0 | 0.00 | 0.00 | 0.00 | 92 | 1017.7 |
| 20260901072534 | 71 | 333 | 0.0 | 0.0 | 0.00 | 0.00 | 0.00 | 92 | 1017.9 |
| 20260901072036 | 71 | 333 | 0.0 | 0.0 | 0.00 | 0.00 | 0.00 | 92 | 1018.0 |
| 20260901071533 | 71 | 333 | 0.0 | 0.0 | 0.00 | 0.00 | 0.00 | 92 | 1018.0 |
| 20260901071032 | 71 | 333 | 0.0 | 0.0 | 0.00 | 0.00 | 0.00 | 92 | 1017.9 |
| 20260901070532 | 71 | 333 | 0.0 | 0.0 | 0.00 | 0.00 | 0.00 | 91 | 1018.0 |
| 20260901070034 | 71 | 333 | 0.0 | 0.0 | 0.00 | 0.00 | 0.00 | 91 | 1018.1 |
| 20260901065531 | 71 | 333 | 0.0 | 0.0 | 0.00 | 0.00 | 0.00 | 91 | 1018.0 |
| 20260901065032 | 71 | 333 | 0.0 | 0.0 | 0.00 | 0.00 | 0.00 | 91 | 1018.2 |
| 20260901064532 | 71 | 333 | 0.0 | 0.0 | 0.00 | 0.00 | 0.00 | 91 | 1018.3 |
| 20260901064031 | 71 | 333 | 0.0 | 0.0 | 0.00 | 0.00 | 0.00 | 91 | 1018.1 |
| 20260901063529 | 72 | 333 | 0.0 | 0.0 | 0.00 | 0.00 | 0.00 | 90 | 1018.1 |
| 20260901063032 | 72 | 333 | 0.0 | 0.0 | 0.00 | 0.00 | 0.00 | 90 | 1018.1 |
| 20260901062530 | 72 | 333 | 0.0 | 0.0 | 0.00 | 0.00 | 0.00 | 90 | 1017.9 |
| 20260901062030 | 72 | 333 | 0.0 | 0.0 | 0.00 | 0.00 | 0.00 | 90 | 1018.2 |
| 20260901061528 | 72 | 333 | 0.0 | 0.0 | 0.00 | 0.00 | 0.00 | 90 | 1018.3 |
| 20260901061028 | 72 | 333 | 0.0 | 0.0 | 0.00 | 0.00 | 0.00 | 90 | 1018.2 |
| 20260901060528 | 72 | 333 | 0.0 | 0.0 | 0.00 | 0.00 | 0.00 | 90 | 1018.2 |
| 20260901060026 | 72 | 333 | 0.0 | 1.0 | 0.00 | 0.00 | 0.00 | 90 | 1018.4 |
| 20260901055527 | 72 | 333 | 0.0 | 1.0 | 0.00 | 0.00 | 0.00 | 90 | 1018.4 |
| 20260901055025 | 72 | 333 | 0.0 | 0.0 | 0.00 | 0.00 | 0.00 | 90 | 1018.4 |
| 20260901054522 | 72 | 333 | 0.0 | 0.0 | 0.00 | 0.00 | 0.00 | 90 | 1018.5 |
| 20260901054022 | 73 | 333 | 0.0 | 0.0 | 0.00 | 0.00 | 0.00 | 89 | 1018.5 |
| 20260901053521 | 73 | 332 | 0.0 | 1.0 | 0.00 | 0.00 | 0.00 | 88 | 1018.3 |
| 20260901053019 | 73 | 331 | 0.0 | 1.0 | 0.00 | 0.00 | 0.00 | 89 | 1018.3 |
| 20260901052517 | 73 | 333 | 0.0 | 1.0 | 0.00 | 0.00 | 0.00 | 89 | 1018.3 |
| 20260901052016 | 73 | 333 | 0.0 | 0.0 | 0.00 | 0.00 | 0.00 | 89 | 1018.3 |
| 20260901051527 | 73 | 333 | 0.0 | 0.0 | 0.00 | 0.00 | 0.00 | 89 | 1018.5 |
| 20260901051013 | 73 | 332 | 0.0 | 0.0 | 0.00 | 0.00 | 0.00 | 90 | 1018.6 |
| 20260901050512 | 73 | 333 | 0.0 | 0.0 | 0.00 | 0.00 | 0.00 | 90 | 1018.6 |
| 20260901050011 | 73 | 333 | 0.0 | 0.0 | 0.00 | 0.00 | 0.00 | 90 | 1018.4 |
| 20260901045512 | 73 | 333 | 0.0 | 0.0 | 0.00 | 0.00 | 0.00 | 89 | 1018.3 |
| 20260901045010 | 73 | 360 | 0.0 | 0.0 | 0.00 | 0.00 | 0.00 | 89 | 1018.3 |
| 20260901044510 | 73 | 360 | 0.0 | 0.0 | 0.00 | 0.00 | 0.00 | 88 | 1018.4 |
| 20260901044011 | 73 | 333 | 0.0 | 0.0 | 0.00 | 0.00 | 0.00 | 88 | 1018.3 |
| 20260901043510 | 74 | 360 | 0.0 | 0.0 | 0.00 | 0.00 | 0.00 | 88 | 1018.2 |
| 20260901043009 | 73 | 333 | 0.0 | 0.0 | 0.00 | 0.00 | 0.00 | 89 | 1018.4 |
| 20260901042508 | 74 | 333 | 0.0 | 1.0 | 0.00 | 0.00 | 0.00 | 88 | 1018.5 |
| 20260901042008 | 74 | 332 | 0.0 | 1.0 | 0.00 | 0.00 | 0.00 | 89 | 1018.6 |
| 20260901041509 | 73 | 333 | 0.0 | 0.0 | 0.00 | 0.00 | 0.00 | 89 | 1018.5 |
| 20260901041007 | 73 | 333 | 0.0 | 0.0 | 0.00 | 0.00 | 0.00 | 89 | 1018.4 |
| 20260901040507 | 73 | 360 | 0.0 | 0.0 | 0.00 | 0.00 | 0.00 | 89 | 1018.5 |
| 20260901040006 | 73 | 333 | 0.0 | 0.0 | 0.00 | 0.00 | 0.00 | 89 | 1018.5 |
| 20260901035506 | 74 | 360 | 0.0 | 0.0 | 0.00 | 0.00 | 0.00 | 89 | 1018.3 |
| 20260901035006 | 74 | 333 | 0.0 | 0.0 | 0.00 | 0.00 | 0.00 | 89 | 1018.4 |
| 20260901034506 | 74 | 332 | 0.0 | 0.0 | 0.00 | 0.00 | 0.00 | 89 | 1018.1 |
| 20260901034006 | 74 | 333 | 0.0 | 0.0 | 0.00 | 0.00 | 0.00 | 88 | 1018.2 |
| 20260901033506 | 74 | 333 | 0.0 | 0.0 | 0.00 | 0.00 | 0.00 | 88 | 1018.3 |
| 20260901033008 | 74 | 360 | 0.0 | 0.0 | 0.00 | 0.00 | 0.00 | 88 | 1018.3 |
| 20260901032507 | 74 | 360 | 0.0 | 0.0 | 0.00 | 0.00 | 0.00 | 88 | 1018.3 |
| 20260901032010 | 74 | 333 | 0.0 | 0.0 | 0.00 | 0.00 | 0.00 | 88 | 1018.2 |
| 20260901031505 | 74 | 333 | 0.0 | 0.0 | 0.00 | 0.00 | 0.00 | 87 | 1018.1 |
| 20260901031005 | 75 | 360 | 0.0 | 0.0 | 0.00 | 0.00 | 0.00 | 88 | 1018.2 |
| 20260901030505 | 75 | 332 | 0.0 | 0.0 | 0.00 | 0.00 | 0.00 | 88 | 1018.2 |
| 20260901030005 | 75 | 333 | 0.0 | 0.0 | 0.00 | 0.00 | 0.00 | 87 | 1018.3 |
| 20260901025505 | 75 | 360 | 0.0 | 0.0 | 0.00 | 0.00 | 0.00 | 87 | 1018.3 |
| 20260901025005 | 75 | 333 | 0.0 | 0.0 | 0.00 | 0.00 | 0.00 | 87 | 1018.2 |
| 20260901024505 | 75 | 360 | 0.0 | 0.0 | 0.00 | 0.00 | 0.00 | 86 | 1018.3 |
| 20260901024005 | 76 | 360 | 0.0 | 0.0 | 0.00 | 0.00 | 0.00 | 85 | 1018.0 |
| 20260901023504 | 76 | 333 | 0.0 | 0.0 | 0.00 | 0.00 | 0.00 | 85 | 1018.1 |
| 20260901023004 | 76 | 333 | 0.0 | 0.0 | 0.00 | 0.00 | 0.00 | 85 | 1018.0 |
| 20260901022505 | 76 | 360 | 0.0 | 0.0 | 0.00 | 0.00 | 0.00 | 86 | 1017.9 |
| 20260901022004 | 76 | 360 | 0.0 | 0.0 | 0.00 | 0.00 | 0.00 | 86 | 1018.0 |
| 20260901021503 | 76 | 360 | 0.0 | 0.0 | 0.00 | 0.00 | 0.00 | 86 | 1018.0 |
| 20260901021003 | 76 | 360 | 0.0 | 0.0 | 0.00 | 0.00 | 0.00 | 86 | 1018.0 |
| 20260901020506 | 76 | 360 | 0.0 | 0.0 | 0.00 | 0.00 | 0.00 | 87 | 1017.7 |
| 20260901020004 | 76 | 360 | 0.0 | 0.0 | 0.00 | 0.00 | 0.00 | 86 | 1017.8 |
| 20260901015502 | 76 | 332 | 0.0 | 0.0 | 0.00 | 0.00 | 0.00 | 86 | 1017.7 |
| 20260901015004 | 76 | 332 | 0.0 | 0.0 | 0.00 | 0.00 | 0.00 | 86 | 1017.7 |
| 20260901014501 | 77 | 333 | 0.0 | 0.0 | 0.00 | 0.00 | 0.00 | 85 | 1017.8 |
| 20260901014004 | 77 | 333 | 0.0 | 0.0 | 0.00 | 0.00 | 0.00 | 85 | 1017.8 |
| 20260901013502 | 77 | 333 | 0.0 | 0.0 | 0.00 | 0.00 | 0.00 | 85 | 1017.6 |
| 20260901013003 | 77 | 333 | 0.0 | 0.0 | 0.00 | 0.00 | 0.00 | 84 | 1017.7 |
| 20260901012501 | 78 | 333 | 0.0 | 0.0 | 0.00 | 0.00 | 0.00 | 83 | 1017.6 |
| 20260901012002 | 78 | 333 | 0.0 | 0.0 | 0.00 | 0.00 | 0.00 | 82 | 1017.5 |
| 20260901011501 | 78 | 333 | 0.0 | 0.0 | 0.00 | 0.00 | 0.00 | 83 | 1017.3 |
| 20260901011002 | 78 | 333 | 0.0 | 0.0 | 0.00 | 0.00 | 0.00 | 83 | 1017.5 |
| 20260901010501 | 78 | 333 | 0.0 | 0.0 | 0.00 | 0.00 | 0.00 | 84 | 1017.2 |
| 20260901010002 | 79 | 333 | 0.0 | 0.0 | 0.00 | 0.00 | 0.00 | 82 | 1017.1 |
| 20260901005600 | 79 | 333 | 0.0 | 0.0 | 0.00 | 0.00 | 0.00 | 83 | 1017.2 |
| 20260901005059 | 79 | 333 | 0.0 | 0.0 | 0.00 | 0.00 | 0.00 | 83 | 1017.1 |
| 20260901004600 | 79 | 333 | 0.0 | 0.0 | 0.00 | 0.00 | 0.00 | 83 | 1017.2 |
| 20260901004059 | 79 | 333 | 0.0 | 0.0 | 0.00 | 0.00 | 0.00 | 83 | 1017.1 |
| 20260901003559 | 79 | 333 | 0.0 | 0.0 | 0.00 | 0.00 | 0.00 | 84 | 1017.1 |
| 20260901003059 | 80 | 333 | 0.0 | 0.0 | 0.00 | 0.00 | 0.00 | 83 | 1017.1 |
| 20260901002559 | 80 | 333 | 0.0 | 0.0 | 0.00 | 0.00 | 0.00 | 82 | 1017.2 |
| 20260901002058 | 81 | 333 | 0.0 | 0.0 | 0.00 | 0.00 | 0.00 | 80 | 1017.2 |
| 20260901001605 | 81 | 333 | 0.0 | 0.0 | 0.00 | 0.00 | 0.00 | 79 | 1017.1 |
| 20260901001058 | 81 | 333 | 0.0 | 0.0 | 0.00 | 0.00 | 0.00 | 80 | 1017.1 |
| 20260901000558 | 82 | 333 | 0.0 | 0.0 | 0.00 | 0.00 | 0.00 | 80 | 1017.2 |
| 20260901000107 | 82 | 333 | 0.0 | 0.0 | 0.00 | 0.00 | 0.00 | 80 | 1017.1 |
| 20260831235559 | 82 | 333 | 0.0 | 1.0 | 0.00 | 0.00 | 0.00 | 79 | 1017.2 |
| 20260831235057 | 82 | 333 | 0.0 | 1.0 | 0.00 | 0.00 | 0.00 | 80 | 1017.1 |
| 20260831234618 | 82 | 333 | 0.0 | 1.0 | 0.00 | 0.00 | 0.00 | 79 | 1017.0 |
| 20260831234057 | 83 | 333 | 0.0 | 0.0 | 0.00 | 0.00 | 0.00 | 78 | 1017.0 |
| 20260831233558 | 84 | 333 | 0.0 | 0.0 | 0.00 | 0.00 | 0.00 | 76 | 1017.0 |
| 20260831233118 | 84 | 333 | 0.0 | 0.0 | 0.00 | 0.00 | 0.00 | 75 | 1016.9 |
| 20260831232556 | 85 | 333 | 0.0 | 0.0 | 0.00 | 0.00 | 0.00 | 73 | 1017.2 |
| 20260831232055 | 85 | 333 | 0.0 | 0.0 | 0.00 | 0.00 | 0.00 | 72 | 1017.1 |
| 20260831231555 | 86 | 333 | 0.0 | 1.0 | 0.00 | 0.00 | 0.00 | 68 | 1017.3 |
| 20260831231055 | 87 | 333 | 0.0 | 1.0 | 0.00 | 0.00 | 0.00 | 66 | 1017.2 |
| 20260831230556 | 88 | 333 | 0.0 | 2.0 | 0.00 | 0.00 | 0.00 | 63 | 1017.3 |
| 20260831230054 | 89 | 333 | 0.0 | 2.0 | 0.00 | 0.00 | 0.00 | 58 | 1017.3 |
| 20260831225554 | 89 | 333 | 0.0 | 2.0 | 0.00 | 0.00 | 0.00 | 57 | 1017.5 |
| 20260831225053 | 89 | 333 | 0.0 | 1.0 | 0.00 | 0.00 | 0.00 | 59 | 1017.5 |
| 20260831224552 | 89 | 333 | 0.0 | 2.0 | 0.00 | 0.00 | 0.00 | 58 | 1017.5 |
| 20260831224055 | 89 | 333 | 0.0 | 2.0 | 0.00 | 0.00 | 0.00 | 60 | 1017.5 |
| 20260831223554 | 90 | 333 | 0.0 | 2.0 | 0.00 | 0.00 | 0.00 | 57 | 1017.7 |
| 20260831223053 | 90 | 333 | 0.0 | 2.0 | 0.00 | 0.00 | 0.00 | 56 | 1017.7 |
| 20260831222552 | 91 | 333 | 0.0 | 3.0 | 0.00 | 0.00 | 0.00 | 56 | 1017.5 |
| 20260831222053 | 90 | 39 | 0.0 | 3.0 | 0.00 | 0.00 | 0.00 | 54 | 1017.6 |
| 20260831221552 | 91 | 40 | 0.0 | 3.0 | 0.00 | 0.00 | 0.00 | 54 | 1017.6 |
| 20260831221052 | 91 | 41 | 0.0 | 3.0 | 0.00 | 0.00 | 0.00 | 54 | 1017.6 |
| 20260831220554 | 92 | 41 | 0.0 | 3.0 | 0.00 | 0.00 | 0.00 | 53 | 1017.7 |
| 20260831220052 | 92 | 38 | 0.0 | 3.0 | 0.00 | 0.00 | 0.00 | 53 | 1017.6 |
| 20260831215550 | 92 | 37 | 1.0 | 3.0 | 0.00 | 0.00 | 0.00 | 54 | 1017.5 |
| 20260831215051 | 92 | 39 | 0.0 | 3.0 | 0.00 | 0.00 | 0.00 | 55 | 1017.7 |
| 20260831214603 | 91 | 72 | 1.0 | 3.0 | 0.00 | 0.00 | 0.00 | 53 | 1017.6 |
| 20260831214051 | 90 | 177 | 1.0 | 3.0 | 0.00 | 0.00 | 0.00 | 55 | 1017.9 |
| 20260831213551 | 90 | 351 | 0.0 | 3.0 | 0.00 | 0.00 | 0.00 | 53 | 1017.8 |
| 20260831213049 | 90 | 21 | 0.0 | 3.0 | 0.00 | 0.00 | 0.00 | 55 | 1017.8 |
| 20260831212553 | 91 | 19 | 1.0 | 5.0 | 0.00 | 0.00 | 0.00 | 53 | 1017.9 |
| 20260831212049 | 91 | 51 | 1.0 | 5.0 | 0.00 | 0.00 | 0.00 | 52 | 1018.1 |
| 20260831211548 | 92 | 65 | 1.0 | 3.0 | 0.00 | 0.00 | 0.00 | 52 | 1017.9 |
| 20260831211048 | 92 | 323 | 1.0 | 3.0 | 0.00 | 0.00 | 0.00 | 53 | 1018.1 |
| 20260831210548 | 93 | 13 | 1.0 | 4.0 | 0.00 | 0.00 | 0.00 | 55 | 1018.0 |
| 20260831210048 | 92 | 304 | 1.0 | 4.0 | 0.00 | 0.00 | 0.00 | 51 | 1018.1 |
| 20260831205548 | 92 | 15 | 1.0 | 4.0 | 0.00 | 0.00 | 0.00 | 54 | 1017.9 |
| 20260831205051 | 93 | 309 | 1.0 | 4.0 | 0.00 | 0.00 | 0.00 | 55 | 1018.0 |
| 20260831204547 | 92 | 269 | 0.0 | 6.0 | 0.00 | 0.00 | 0.00 | 52 | 1018.1 |
| 20260831204047 | 92 | 262 | 0.0 | 6.0 | 0.00 | 0.00 | 0.00 | 51 | 1018.1 |
| 20260831203548 | 92 | 246 | 1.0 | 4.0 | 0.00 | 0.00 | 0.00 | 51 | 1018.1 |
| 20260831203046 | 93 | 34 | 1.0 | 4.0 | 0.00 | 0.00 | 0.00 | 53 | 1017.9 |
| 20260831202546 | 93 | 300 | 1.0 | 4.0 | 0.00 | 0.00 | 0.00 | 54 | 1017.9 |
| 20260831202045 | 92 | 73 | 1.0 | 4.0 | 0.00 | 0.00 | 0.00 | 53 | 1018.0 |
| 20260831201646 | 93 | 249 | 2.0 | 4.0 | 0.00 | 0.00 | 0.00 | 51 | 1018.1 |
| 20260831201045 | 93 | 331 | 1.0 | 4.0 | 0.00 | 0.00 | 0.00 | 53 | 1018.3 |
| 20260831200545 | 93 | 19 | 1.0 | 4.0 | 0.00 | 0.00 | 0.00 | 51 | 1018.4 |
| 20260831200044 | 93 | 314 | 1.0 | 5.0 | 0.00 | 0.00 | 0.00 | 54 | 1018.4 |
| 20260831195546 | 92 | 315 | 2.0 | 5.0 | 0.00 | 0.00 | 0.00 | 55 | 1018.5 |
| 20260831195043 | 92 | 266 | 2.0 | 3.0 | 0.00 | 0.00 | 0.00 | 51 | 1018.6 |
| 20260831194545 | 92 | 162 | 1.0 | 5.0 | 0.00 | 0.00 | 0.00 | 53 | 1018.8 |
| 20260831194042 | 92 | 163 | 2.0 | 5.0 | 0.00 | 0.00 | 0.00 | 52 | 1018.8 |
| 20260831193542 | 92 | 239 | 2.0 | 5.0 | 0.00 | 0.00 | 0.00 | 50 | 1018.8 |
| 20260831193042 | 92 | 296 | 2.0 | 5.0 | 0.00 | 0.00 | 0.00 | 54 | 1018.8 |
| 20260831192542 | 92 | 24 | 2.0 | 5.0 | 0.00 | 0.00 | 0.00 | 52 | 1018.8 |
| 20260831192044 | 92 | 290 | 1.0 | 3.0 | 0.00 | 0.00 | 0.00 | 51 | 1018.7 |
| 20260831191541 | 92 | 286 | 2.0 | 5.0 | 0.00 | 0.00 | 0.00 | 52 | 1018.9 |
| 20260831191044 | 92 | 315 | 2.0 | 5.0 | 0.00 | 0.00 | 0.00 | 54 | 1018.7 |
| 20260831190544 | 92 | 300 | 1.0 | 4.0 | 0.00 | 0.00 | 0.00 | 57 | 1018.7 |
| 20260831190041 | 91 | 294 | 1.0 | 4.0 | 0.00 | 0.00 | 0.00 | 55 | 1018.8 |
| 20260831185540 | 90 | 299 | 2.0 | 4.0 | 0.00 | 0.00 | 0.00 | 55 | 1019.0 |
| 20260831185039 | 90 | 76 | 2.0 | 4.0 | 0.00 | 0.00 | 0.00 | 57 | 1018.9 |
| 20260831184539 | 89 | 54 | 1.0 | 4.0 | 0.00 | 0.00 | 0.00 | 57 | 1019.2 |
| 20260831184043 | 90 | 193 | 2.0 | 4.0 | 0.00 | 0.00 | 0.00 | 53 | 1019.3 |
| 20260831183539 | 92 | 240 | 0.0 | 3.0 | 0.00 | 0.00 | 0.00 | 52 | 1019.3 |
| 20260831183038 | 91 | 242 | 1.0 | 4.0 | 0.00 | 0.00 | 0.00 | 55 | 1019.4 |
| 20260831182538 | 92 | 175 | 2.0 | 5.0 | 0.00 | 0.00 | 0.00 | 51 | 1019.5 |
| 20260831182038 | 91 | 284 | 2.0 | 6.0 | 0.00 | 0.00 | 0.00 | 53 | 1019.6 |
| 20260831181542 | 90 | 281 | 1.0 | 6.0 | 0.00 | 0.00 | 0.00 | 53 | 1019.6 |
| 20260831181037 | 91 | 172 | 2.0 | 6.0 | 0.00 | 0.00 | 0.00 | 53 | 1019.7 |
| 20260831180535 | 91 | 123 | 1.0 | 4.0 | 0.00 | 0.00 | 0.00 | 51 | 1019.8 |
| 20260831180036 | 90 | 312 | 1.0 | 4.0 | 0.00 | 0.00 | 0.00 | 55 | 1019.7 |
| 20260831175534 | 90 | 272 | 1.0 | 4.0 | 0.00 | 0.00 | 0.00 | 54 | 1019.8 |
| 20260831175035 | 89 | 210 | 1.0 | 5.0 | 0.00 | 0.00 | 0.00 | 57 | 1019.8 |
| 20260831174534 | 91 | 334 | 1.0 | 5.0 | 0.00 | 0.00 | 0.00 | 55 | 1019.8 |
| 20260831174037 | 90 | 221 | 2.0 | 6.0 | 0.00 | 0.00 | 0.00 | 55 | 1019.8 |
| 20260831173533 | 90 | 153 | 3.0 | 6.0 | 0.00 | 0.00 | 0.00 | 56 | 1019.8 |
| 20260831173032 | 89 | 286 | 2.0 | 5.0 | 0.00 | 0.00 | 0.00 | 57 | 1019.9 |
| 20260831172532 | 88 | 149 | 1.0 | 3.0 | 0.00 | 0.00 | 0.00 | 61 | 1020.0 |
| 20260831172032 | 88 | 62 | 1.0 | 4.0 | 0.00 | 0.00 | 0.00 | 59 | 1020.0 |
| 20260831171531 | 90 | 251 | 1.0 | 5.0 | 0.00 | 0.00 | 0.00 | 58 | 1020.2 |
| 20260831171029 | 89 | 219 | 2.0 | 7.0 | 0.00 | 0.00 | 0.00 | 62 | 1020.1 |
| 20260831170529 | 89 | 238 | 2.0 | 7.0 | 0.00 | 0.00 | 0.00 | 60 | 1020.2 |
| 20260831170032 | 89 | 282 | 2.0 | 7.0 | 0.00 | 0.00 | 0.00 | 61 | 1020.1 |
| 20260831165527 | 88 | 155 | 2.0 | 7.0 | 0.00 | 0.00 | 0.00 | 60 | 1020.4 |
| 20260831165026 | 88 | 203 | 1.0 | 6.0 | 0.00 | 0.00 | 0.00 | 60 | 1020.5 |
| 20260831164529 | 89 | 266 | 2.0 | 6.0 | 0.00 | 0.00 | 0.00 | 61 | 1020.6 |
| 20260831164026 | 88 | 342 | 3.0 | 7.0 | 0.00 | 0.00 | 0.00 | 62 | 1020.6 |
| 20260831163525 | 87 | 268 | 1.0 | 5.0 | 0.00 | 0.00 | 0.00 | 62 | 1020.6 |
| 20260831163024 | 89 | 298 | 2.0 | 5.0 | 0.00 | 0.00 | 0.00 | 60 | 1020.8 |
| 20260831162523 | 88 | 189 | 0.0 | 7.0 | 0.00 | 0.00 | 0.00 | 64 | 1020.8 |
| 20260831162022 | 88 | 208 | 0.0 | 7.0 | 0.00 | 0.00 | 0.00 | 63 | 1020.7 |
| 20260831161520 | 88 | 173 | 1.0 | 7.0 | 0.00 | 0.00 | 0.00 | 62 | 1020.7 |
| 20260831161025 | 87 | 242 | 3.0 | 7.0 | 0.00 | 0.00 | 0.00 | 61 | 1020.5 |
| 20260831160520 | 87 | 184 | 2.0 | 6.0 | 0.00 | 0.00 | 0.00 | 62 | 1020.6 |
| 20260831160018 | 87 | 234 | 1.0 | 6.0 | 0.00 | 0.00 | 0.00 | 64 | 1020.6 |
| 20260831155517 | 88 | 178 | 2.0 | 6.0 | 0.00 | 0.00 | 0.00 | 65 | 1020.5 |
| 20260831155015 | 87 | 134 | 2.0 | 5.0 | 0.00 | 0.00 | 0.00 | 65 | 1020.7 |
| 20260831154514 | 86 | 162 | 1.0 | 6.0 | 0.00 | 0.00 | 0.00 | 67 | 1020.7 |
| 20260831154012 | 87 | 225 | 2.0 | 5.0 | 0.00 | 0.00 | 0.00 | 65 | 1020.7 |
| 20260831153511 | 87 | 108 | 2.0 | 7.0 | 0.00 | 0.00 | 0.00 | 67 | 1020.8 |
| 20260831153014 | 86 | 282 | 2.0 | 6.0 | 0.00 | 0.00 | 0.00 | 68 | 1020.6 |
| 20260831152509 | 86 | 192 | 2.0 | 6.0 | 0.00 | 0.00 | 0.00 | 67 | 1020.7 |
| 20260831152007 | 86 | 236 | 2.0 | 8.0 | 0.00 | 0.00 | 0.00 | 67 | 1020.8 |
| 20260831151512 | 86 | 195 | 3.0 | 8.0 | 0.00 | 0.00 | 0.00 | 66 | 1020.7 |
| 20260831151005 | 86 | 328 | 2.0 | 7.0 | 0.00 | 0.00 | 0.00 | 67 | 1020.9 |
| 20260831150504 | 85 | 170 | 2.0 | 7.0 | 0.00 | 0.00 | 0.00 | 69 | 1020.9 |
| 20260831150004 | 85 | 268 | 1.0 | 6.0 | 0.00 | 0.00 | 0.00 | 69 | 1020.9 |
| 20260831145601 | 85 | 349 | 1.0 | 4.0 | 0.00 | 0.00 | 0.00 | 69 | 1020.7 |
| 20260831145101 | 85 | 213 | 1.0 | 4.0 | 0.00 | 0.00 | 0.00 | 71 | 1020.6 |
| 20260831144557 | 84 | 239 | 1.0 | 6.0 | 0.00 | 0.00 | 0.00 | 70 | 1020.8 |
| 20260831144056 | 83 | 173 | 2.0 | 7.0 | 0.00 | 0.00 | 0.00 | 70 | 1020.6 |
| 20260831143556 | 83 | 225 | 2.0 | 7.0 | 0.00 | 0.00 | 0.00 | 71 | 1020.5 |
| 20260831143109 | 82 | 169 | 1.0 | 8.0 | 0.00 | 0.00 | 0.00 | 73 | 1020.5 |
| 20260831142552 | 82 | 151 | 2.0 | 8.0 | 0.00 | 0.00 | 0.00 | 73 | 1020.4 |
| 20260831142050 | 81 | 171 | 0.0 | 7.0 | 0.00 | 0.00 | 0.00 | 74 | 1020.4 |
| 20260831141550 | 81 | 274 | 1.0 | 8.0 | 0.00 | 0.00 | 0.00 | 74 | 1020.2 |
| 20260831141048 | 81 | 176 | 3.0 | 8.0 | 0.00 | 0.00 | 0.00 | 74 | 1020.1 |
| 20260831140548 | 81 | 229 | 1.0 | 5.0 | 0.00 | 0.00 | 0.00 | 74 | 1020.3 |
| 20260831140050 | 81 | 243 | 2.0 | 5.0 | 0.00 | 0.00 | 0.00 | 75 | 1020.2 |
| 20260831135546 | 80 | 175 | 0.0 | 8.0 | 0.00 | 0.00 | 0.00 | 76 | 1020.2 |
| 20260831135046 | 80 | 195 | 3.0 | 8.0 | 0.00 | 0.00 | 0.00 | 75 | 1020.3 |
| 20260831134544 | 80 | 191 | 3.0 | 6.0 | 0.00 | 0.00 | 0.00 | 75 | 1020.4 |
| 20260831134043 | 80 | 185 | 1.0 | 6.0 | 0.00 | 0.00 | 0.00 | 76 | 1020.3 |
| 20260831133542 | 79 | 165 | 3.0 | 6.0 | 0.00 | 0.00 | 0.00 | 76 | 1020.2 |
| 20260831133040 | 79 | 152 | 1.0 | 6.0 | 0.00 | 0.00 | 0.00 | 77 | 1020.3 |
| 20260831132539 | 78 | 146 | 2.0 | 6.0 | 0.00 | 0.00 | 0.00 | 77 | 1020.4 |
| 20260831132038 | 78 | 171 | 3.0 | 6.0 | 0.00 | 0.00 | 0.00 | 78 | 1020.4 |
| 20260831131536 | 78 | 187 | 1.0 | 4.0 | 0.00 | 0.00 | 0.00 | 79 | 1020.3 |
| 20260831131035 | 78 | 171 | 0.0 | 5.0 | 0.00 | 0.00 | 0.00 | 79 | 1020.1 |
| 20260831130536 | 77 | 171 | 1.0 | 5.0 | 0.00 | 0.00 | 0.00 | 80 | 1020.0 |
| 20260831130036 | 77 | 180 | 1.0 | 5.0 | 0.00 | 0.00 | 0.00 | 81 | 1019.9 |
| 20260831125533 | 76 | 174 | 2.0 | 5.0 | 0.00 | 0.00 | 0.00 | 82 | 1019.9 |
| 20260831125031 | 76 | 183 | 1.0 | 3.0 | 0.00 | 0.00 | 0.00 | 83 | 1020.0 |
| 20260831124529 | 75 | 184 | 0.0 | 2.0 | 0.00 | 0.00 | 0.00 | 86 | 1019.9 |
| 20260831124027 | 74 | 183 | 0.0 | 3.0 | 0.00 | 0.00 | 0.00 | 88 | 1020.1 |
| 20260831123525 | 72 | 184 | 0.0 | 0.0 | 0.00 | 0.00 | 0.00 | 91 | 1020.0 |
| 20260831123026 | 71 | 184 | 0.0 | 0.0 | 0.00 | 0.00 | 0.00 | 91 | 1020.0 |
| 20260831122524 | 71 | 184 | 0.0 | 1.0 | 0.00 | 0.00 | 0.00 | 91 | 1019.8 |
| 20260831122024 | 71 | 184 | 0.0 | 1.0 | 0.00 | 0.00 | 0.00 | 92 | 1019.6 |
| 20260831121526 | 70 | 184 | 0.0 | 0.0 | 0.00 | 0.00 | 0.00 | 93 | 1019.7 |
| 20260831121023 | 70 | 184 | 0.0 | 0.0 | 0.00 | 0.00 | 0.00 | 93 | 1019.6 |
| 20260831120525 | 69 | 183 | 0.0 | 0.0 | 0.00 | 0.00 | 0.00 | 93 | 1019.6 |
| 20260831120025 | 69 | 183 | 0.0 | 0.0 | 0.00 | 0.00 | 0.00 | 92 | 1019.6 |
| 20260831115520 | 69 | 184 | 0.0 | 0.0 | 0.00 | 0.00 | 0.00 | 92 | 1019.5 |
| 20260831115019 | 69 | 183 | 0.0 | 0.0 | 0.00 | 0.00 | 0.00 | 92 | 1019.4 |
| 20260831114531 | 69 | 184 | 0.0 | 0.0 | 0.00 | 0.00 | 0.00 | 92 | 1019.4 |
| 20260831114017 | 69 | 183 | 0.0 | 0.0 | 0.00 | 0.00 | 0.00 | 91 | 1019.3 |
| 20260831113517 | 69 | 183 | 0.0 | 1.0 | 0.00 | 0.00 | 0.00 | 91 | 1019.2 |
| 20260831113017 | 69 | 183 | 0.0 | 1.0 | 0.00 | 0.00 | 0.00 | 91 | 1019.2 |
| 20260831112516 | 69 | 184 | 0.0 | 1.0 | 0.00 | 0.00 | 0.00 | 91 | 1019.2 |
| 20260831112015 | 69 | 184 | 0.0 | 1.0 | 0.00 | 0.00 | 0.00 | 91 | 1019.3 |
| 20260831111516 | 70 | 184 | 0.0 | 0.0 | 0.00 | 0.00 | 0.00 | 91 | 1019.3 |
| 20260831111016 | 70 | 184 | 0.0 | 0.0 | 0.00 | 0.00 | 0.00 | 91 | 1019.3 |
| 20260831110513 | 70 | 184 | 0.0 | 0.0 | 0.00 | 0.00 | 0.00 | 91 | 1019.2 |
| 20260831110013 | 70 | 183 | 0.0 | 0.0 | 0.00 | 0.00 | 0.00 | 91 | 1019.2 |
| 20260831105512 | 70 | 184 | 0.0 | 1.0 | 0.00 | 0.00 | 0.00 | 91 | 1019.1 |
| 20260831105013 | 70 | 184 | 0.0 | 2.0 | 0.00 | 0.00 | 0.00 | 91 | 1019.0 |
| 20260831104519 | 70 | 184 | 0.0 | 2.0 | 0.00 | 0.00 | 0.00 | 91 | 1019.0 |
| 20260831104010 | 69 | 183 | 0.0 | 0.0 | 0.00 | 0.00 | 0.00 | 92 | 1019.0 |
| 20260831103510 | 69 | 184 | 0.0 | 0.0 | 0.00 | 0.00 | 0.00 | 91 | 1019.0 |
| 20260831103010 | 69 | 183 | 0.0 | 0.0 | 0.00 | 0.00 | 0.00 | 91 | 1018.9 |
| 20260831102510 | 69 | 184 | 0.0 | 0.0 | 0.00 | 0.00 | 0.00 | 91 | 1019.0 |
| 20260831102009 | 70 | 184 | 0.0 | 0.0 | 0.00 | 0.00 | 0.00 | 90 | 1018.8 |
| 20260831101509 | 70 | 184 | 0.0 | 0.0 | 0.00 | 0.00 | 0.00 | 90 | 1018.6 |
| 20260831101009 | 70 | 183 | 0.0 | 2.0 | 0.00 | 0.00 | 0.00 | 90 | 1018.7 |
| 20260831100508 | 70 | 183 | 0.0 | 2.0 | 0.00 | 0.00 | 0.00 | 90 | 1018.7 |
| 20260831100008 | 70 | 184 | 0.0 | 2.0 | 0.00 | 0.00 | 0.00 | 90 | 1018.7 |
| 20260831095507 | 70 | 184 | 0.0 | 1.0 | 0.00 | 0.00 | 0.00 | 91 | 1018.6 |
| 20260831095009 | 70 | 183 | 0.0 | 0.0 | 0.00 | 0.00 | 0.00 | 91 | 1018.6 |
| 20260831094508 | 70 | 183 | 0.0 | 0.0 | 0.00 | 0.00 | 0.00 | 90 | 1018.6 |
| 20260831094009 | 70 | 183 | 0.0 | 1.0 | 0.00 | 0.00 | 0.00 | 90 | 1018.6 |
| 20260831093507 | 70 | 184 | 0.0 | 1.0 | 0.00 | 0.00 | 0.00 | 90 | 1018.5 |
| 20260831093007 | 70 | 184 | 0.0 | 1.0 | 0.00 | 0.00 | 0.00 | 90 | 1018.6 |
| 20260831092509 | 70 | 183 | 0.0 | 0.0 | 0.00 | 0.00 | 0.00 | 90 | 1018.5 |
| 20260831092006 | 70 | 184 | 0.0 | 1.0 | 0.00 | 0.00 | 0.00 | 91 | 1018.5 |
| 20260831091507 | 70 | 184 | 0.0 | 1.0 | 0.00 | 0.00 | 0.00 | 91 | 1018.4 |
| 20260831091007 | 70 | 183 | 0.0 | 2.0 | 0.00 | 0.00 | 0.00 | 91 | 1018.4 |
| 20260831090506 | 70 | 183 | 0.0 | 2.0 | 0.00 | 0.00 | 0.00 | 91 | 1018.5 |
| 20260831090006 | 70 | 184 | 0.0 | 0.0 | 0.00 | 0.00 | 0.00 | 91 | 1018.6 |
| 20260831085505 | 70 | 183 | 0.0 | 0.0 | 0.00 | 0.00 | 0.00 | 90 | 1018.6 |
| 20260831085004 | 70 | 183 | 0.0 | 1.0 | 0.00 | 0.00 | 0.00 | 90 | 1018.4 |
| 20260831084504 | 70 | 184 | 0.0 | 1.0 | 0.00 | 0.00 | 0.00 | 90 | 1018.4 |
| 20260831084004 | 70 | 183 | 0.0 | 0.0 | 0.00 | 0.00 | 0.00 | 90 | 1018.4 |
| 20260831083504 | 70 | 184 | 0.0 | 1.0 | 0.00 | 0.00 | 0.00 | 90 | 1018.3 |
| 20260831083004 | 70 | 184 | 0.0 | 1.0 | 0.00 | 0.00 | 0.00 | 90 | 1018.3 |
| 20260831082505 | 70 | 183 | 0.0 | 1.0 | 0.00 | 0.00 | 0.00 | 91 | 1018.2 |
| 20260831082008 | 70 | 183 | 0.0 | 0.0 | 0.00 | 0.00 | 0.00 | 91 | 1018.2 |
| 20260831081505 | 70 | 184 | 0.0 | 1.0 | 0.00 | 0.00 | 0.00 | 91 | 1018.1 |